Stations météo

réclame
Mon MeteoGroup
Geisenheim, Allemagne (10628): Température de l'air & dewpoint: 18.01.2018 10:00:00 - 24.01.2018 10:00:00 (CET)Geisenheim, Allemagne (10628): Température de l'air 5cm & Température de l'air -5cm: 18.01.2018 10:00:00 - 24.01.2018 10:00:00 (CET)Geisenheim, Allemagne (10628): Température de l'air -20cm & Température de l'air -100cm: 18.01.2018 10:00:00 - 24.01.2018 10:00:00 (CET)Geisenheim, Allemagne (10628): Vitesse du vent & gusts: 18.01.2018 10:00:00 - 24.01.2018 10:00:00 (CET)Geisenheim, Allemagne (10628): Direction du vent: 18.01.2018 10:00:00 - 24.01.2018 10:00:00 (CET)Geisenheim, Allemagne (10628): reduced air pressure: 18.01.2018 10:00:00 - 24.01.2018 10:00:00 (CET)Geisenheim, Allemagne (10628): visibility: 18.01.2018 10:00:00 - 24.01.2018 10:00:00 (CET)Geisenheim, Allemagne (10628): Ensoleillement: 18.01.2018 10:00:00 - 24.01.2018 10:00:00 (CET)Geisenheim, Allemagne (10628): Quantités de précipitations: 18.01.2018 10:00:00 - 24.01.2018 10:00:00 (CET)
Date & Time tt [°C] td [°C] tt 5cm [°C] tt -5cm [°C] tt -20cm [°C] tt -100cm [°C] ff [km/h] ff [knt] fx [km/h] fx [knt] dd ppp [hPa] vv [km] sd [min] rr [mm]
24.01.2018 10:00:00 9,5 7,8 9,0 6,8 5,3 5,7 7 4 17 9 SW 1022,7 43 0 0,0
24.01.2018 09:00:00 9,1 7,7 8,5 6,4 5,3 5,7 9 5 16 9 SW 1022,7 38 0 0,0
24.01.2018 08:00:00 9,0 7,5 8,1 6,3 5,2 5,7 10 5 23 12 WSW 1022,7 50 0 0,0
24.01.2018 07:00:00 8,6 7,2 7,7 6,1 5,2 5,7 10 6 16 9 WSW 1022,9 45 0 0,0
24.01.2018 06:00:00 8,5 7,1 7,3 6,1 5,1 5,7 13 7 25 14 WSW 1022,9 41 0 0,0
24.01.2018 05:00:00 8,7 6,8 7,9 6,0 5,0 5,7 13 7 20 11 WSW 1023,1 48 0 0,0
24.01.2018 04:00:00 8,3 6,3 7,5 6,0 5,0 5,7 5 3 21 11 W 1023,5 26 0 0,0
24.01.2018 03:00:00 8,3 6,5 7,5 5,9 4,9 5,7 11 6 19 11 WSW 1023,8 16 0 0,0
24.01.2018 02:00:00 8,4 6,5 7,4 5,7 4,9 5,7 11 6 14 8 SSW 1023,6 11 0 0,0
24.01.2018 01:00:00 8,3 6,0 7,3 5,6 4,8 5,7 7 4 18 10 SW 1023,9 22 0 0,0
24.01.2018 00:00:00 8,2 5,8 7,2 5,5 4,8 5,7 12 6 18 10 SSW 1023,9 28 0 0,0
23.01.2018 23:00:00 7,9 5,1 7,0 5,4 4,8 5,7 3 2 8 4 NNE 1024,2 33 0 0,0
23.01.2018 22:00:00 7,8 4,4 6,7 5,3 4,8 5,7 5 3 13 7 W 1024,2 41 0 0,0
23.01.2018 21:00:00 7,8 4,3 6,6 5,4 4,7 5,7 8 4 16 9 SSW 1024,1 42 0 0,0
23.01.2018 20:00:00 7,9 4,3 6,7 5,4 4,7 5,7 7 4 19 10 SSW 1024,4 38 0 0,0
23.01.2018 19:00:00 8,1 4,4 6,9 5,5 4,6 5,7 10 5 16 9 SW 1024,5 31 0 0,0
23.01.2018 18:00:00 8,0 4,6 6,9 5,6 4,6 5,7 10 6 18 10 WSW 1024,6 31 0 0,0
23.01.2018 17:00:00 8,2 4,9 7,2 6,0 4,4 5,7 7 4 15 8 SW 1024,7 27 0 0,0
23.01.2018 16:00:00 8,2 4,8 7,9 6,0 4,3 5,7 9 5 23 12 WSW 1024,9 27 1 0,0
23.01.2018 15:00:00 8,0 4,3 7,4 6,0 4,1 5,7 18 10 25 13 SW 1024,9 32 0 0,0
23.01.2018 14:00:00 7,9 4,2 7,5 5,9 4,0 5,7 13 7 24 13 SW 1025,4 19 0 0,0
23.01.2018 13:00:00 7,5 4,3 7,5 5,1 3,9 5,7 8 4 13 7 SW 1026,0 21 0 0,0
23.01.2018 12:00:00 7,2 4,0 6,3 4,8 3,8 5,7 8 4 13 7 WSW 1026,3 25 0 0,0
23.01.2018 11:00:00 6,6 4,0 5,7 4,2 3,7 5,7 6 4 14 7 S 1026,0 25 0 0,0
23.01.2018 10:00:00 5,8 3,8 4,8 3,8 3,7 5,7 3 2 7 4 E 1025,5 21 0 0,0
23.01.2018 09:00:00 5,3 3,3 4,2 3,6 3,7 5,7 4 2 6 3 NNE 1025,0 23 0 0,0
23.01.2018 08:00:00 5,9 3,2 4,0 3,7 3,7 5,7 3 2 8 4 W 1024,3 30 0 0,0
23.01.2018 07:00:00 6,5 3,2 4,6 3,7 3,6 5,7 7 4 22 12 WSW 1024,0 24 0 0,0
23.01.2018 06:00:00 6,3 3,4 4,5 3,7 3,6 5,7 10 5 14 8 WSW 1023,3 26 0 0,0
23.01.2018 05:00:00 6,1 3,5 4,5 3,7 3,6 5,7 8 5 17 9 WSW 1022,8 25 0 0,0
23.01.2018 04:00:00 6,5 3,3 4,9 3,6 3,5 5,7 11 6 18 10 WSW 1022,3 28 0 0,0
23.01.2018 03:00:00 5,9 3,5 4,3 3,5 3,5 5,7 6 3 16 9 NNW 1021,9 24 0 0,0
23.01.2018 02:00:00 5,6 3,7 3,9 3,5 3,5 5,8 6 3 13 7 W 1021,0 25 0 0,1
23.01.2018 01:00:00 5,8 2,7 4,1 3,5 3,5 5,8 9 5 16 9 W 1020,5 38 0 0,0
23.01.2018 00:00:00 6,0 2,4 4,2 3,4 3,5 5,8 10 5 14 8 WNW 1019,4 37 0 0,0
22.01.2018 23:00:00 6,0 2,7 4,1 3,4 3,5 5,8 9 5 13 7 WNW 1018,3 40 0 0,0
22.01.2018 22:00:00 6,3 3,4 4,3 3,5 3,4 5,8 8 5 16 9 WSW 1017,3 32 0 0,0
22.01.2018 21:00:00 6,5 4,2 4,7 3,5 3,4 5,8 11 6 18 10 W 1016,3 21 0 0,0
22.01.2018 20:00:00 4,9 4,3 3,6 3,4 3,4 5,8 4 2 7 4 W 1015,0 12 0 0,0
22.01.2018 19:00:00 4,6 4,0 3,7 3,5 3,4 5,8 4 2 8 5 W 1014,1 8 0 0,0
22.01.2018 18:00:00 3,8 3,4 3,2 3,6 3,3 5,8 4 2 7 4 SW 1012,5 6 0 0,0
22.01.2018 17:00:00 3,7 3,0 2,5 4,0 3,2 5,8 0 0 0 0 N 1011,3 7 0 0,0
22.01.2018 16:00:00 3,9 3,1 4,0 4,3 3,0 5,8 0 0 0 0 N 1010,2 7 0 0,0
22.01.2018 15:00:00 3,7 2,9 4,2 4,3 2,8 5,8 0 0 0 0 N 1009,3 7 0 0,0
22.01.2018 14:00:00 3,6 2,6 4,5 4,0 2,7 5,8 1 1 7 4 SSW 1009,1 10 0 0,3
22.01.2018 13:00:00 3,0 2,0 3,5 3,3 2,5 5,8 3 2 7 4 NNE 1009,6 3,5 0 0,0
22.01.2018 12:00:00 2,1 1,4 3,3 2,6 2,5 5,9 5 3 8 4 E 1009,6 6 0 0,0
22.01.2018 11:00:00 1,9 1,1 2,7 1,9 2,4 5,9 4 2 7 4 E 1009,8 13 0 0,1
22.01.2018 10:00:00 1,4 0,8 1,5 1,6 2,4 5,9 2 1 8 5 NNE 1009,8 5 0 0,0
22.01.2018 09:00:00 1,2 0,9 1,2 1,4 2,4 5,9 5 3 6 4 ENE 1009,7 2,9 0 0,1
22.01.2018 08:00:00 1,1 0,8 1,0 1,3 2,4 5,9 5 3 8 5 E 1009,8 2,7 0 0,2
22.01.2018 07:00:00 1,0 0,7 0,8 1,3 2,5 5,9 6 3 15 8 E 1010,2 1,8 0 0,9
22.01.2018 06:00:00 0,9 0,4 0,7 1,2 2,5 5,9 9 5 15 8 ENE 1010,8 1,6 0 0,4
22.01.2018 05:00:00 0,8 0,2 0,6 1,0 2,6 5,9 10 5 16 9 ENE 1011,1 3,5 0 0,6
22.01.2018 04:00:00 0,8 0,4 0,2 1,0 2,7 5,9 9 5 16 9 ENE 1011,4 1,9 0 0,5
22.01.2018 03:00:00 0,7 0,2 0,0 1,1 2,7 5,9 11 6 18 10 ENE 1012,0 1,8 0 0,9
22.01.2018 02:00:00 0,8 0,4 0,0 1,2 2,8 5,9 8 5 13 7 ENE 1012,8 6 0 1,1
22.01.2018 01:00:00 1,3 0,0 0,6 1,6 2,8 6,0 6 3 11 6 SE 1014,1 4,8 0 0,5
22.01.2018 00:00:00 2,2 -0,5 1,1 1,6 2,9 6,0 5 3 9 5 E 1015,0 5 0 0,0
21.01.2018 23:00:00 1,8 -0,4 1,1 1,6 3,0 6,0 6 3 10 5 NE 1015,8 18 0 0,0
21.01.2018 22:00:00 1,1 -0,8 0,4 1,6 3,1 6,0 5 3 8 4 NNE 1016,8 17 0 0,0
21.01.2018 21:00:00 1,2 -0,9 0,5 1,7 3,2 6,0 5 3 7 4 NNE 1017,8 12 0 0,0
21.01.2018 20:00:00 1,6 -1,0 0,2 1,9 3,3 6,0 3 2 11 6 WSW 1018,3 28 0 0,0
21.01.2018 19:00:00 2,5 -0,9 0,0 2,5 3,3 6,0 8 4 14 8 SW 1018,5 33 0 0,0
21.01.2018 18:00:00 3,3 -1,0 1,9 3,2 3,2 6,0 10 5 18 10 W 1018,7 46 0 0,0
21.01.2018 17:00:00 3,8 -1,0 3,0 3,9 3,1 6,0 14 8 19 10 WSW 1018,8 59 0 0,0
21.01.2018 16:00:00 4,7 -1,1 4,5 4,5 2,8 6,1 12 7 27 14 W 1018,5 70 28 0,0
21.01.2018 15:00:00 5,3 -1,2 7,5 4,3 2,6 6,1 11 6 26 14 W 1018,1 58 44 0,0
21.01.2018 14:00:00 4,4 -0,9 4,5 3,8 2,4 6,1 14 8 28 15 W 1017,6 70 0 0,0
21.01.2018 13:00:00 4,3 -0,7 5,2 3,5 2,2 6,1 19 11 30 16 WNW 1017,5 41 20 0,0
21.01.2018 12:00:00 4,1 -0,2 6,0 2,0 2,2 6,1 9 5 32 17 W 1017,0 39 29 0,0
21.01.2018 11:00:00 3,2 -0,3 1,7 0,8 2,2 6,1 10 5 20 11 W 1016,4 49 6 0,0
21.01.2018 10:00:00 2,8 -0,7 0,5 0,7 2,2 6,1 6 4 23 13 WNW 1015,4 31 7 0,0
21.01.2018 09:00:00 2,3 -0,5 0,3 0,8 2,3 6,1 12 7 35 19 NW 1014,1 25 0 0,0
21.01.2018 08:00:00 2,5 -0,2 0,7 1,0 2,3 6,1 22 12 37 20 NW 1012,6 16 0 0,1
21.01.2018 07:00:00 2,4 0,2 1,0 1,0 2,3 6,2 24 13 37 20 NW 1011,2 3,8 0 0,3
21.01.2018 06:00:00 2,5 0,4 1,2 0,9 2,3 6,2 23 12 37 20 NW 1010,2 13 0 0,1
21.01.2018 05:00:00 2,8 0,2 1,0 0,9 2,4 6,2 27 14 47 26 NW 1008,7 32 0 0,0
21.01.2018 04:00:00 2,6 0,3 0,7 1,0 2,4 6,2 16 9 35 19 NW 1007,2 33 0 0,0
21.01.2018 03:00:00 2,4 0,4 1,1 1,0 2,4 6,2 17 9 30 16 NW 1006,0 20 0 0,0
21.01.2018 02:00:00 2,3 0,4 0,2 0,9 2,4 6,2 5 3 16 8 WSW 1004,3 29 0 0,0
21.01.2018 01:00:00 1,7 0,9 0,0 0,9 2,5 6,2 4 2 9 5 SSW 1003,0 9 0 0,0
21.01.2018 00:00:00 1,1 0,7 0,0 0,9 2,6 6,2 2 1 5 3 S 1001,9 4,0 0 0,2
20.01.2018 23:00:00 0,7 0,2 0,0 0,9 2,6 6,2 4 2 6 3 W 1001,4 4,1 0 0,0
20.01.2018 22:00:00 0,8 0,6 0,0 1,0 2,7 6,2 2 1 4 2 NW 1000,9 6 0 0,0
20.01.2018 21:00:00 0,7 0,2 0,0 1,0 2,8 6,2 2 1 6 3 NW 1000,7 4,4 0 0,0
20.01.2018 20:00:00 0,7 0,2 0,0 1,1 2,9 6,2 6 3 12 6 E 1000,3 4,2 0 0,0
20.01.2018 19:00:00 0,7 0,3 0,0 1,2 3,0 6,2 7 4 14 8 ENE 1000,2 8 0 1,3
20.01.2018 18:00:00 0,6 0,2 0,0 1,4 3,0 6,3 7 4 12 7 ENE 1000,5 1,8 0 1,8
20.01.2018 17:00:00 0,5 0,1 0,0 1,7 3,1 6,3 5 3 11 6 ENE 1001,1 1,7 0 2,1
20.01.2018 16:00:00 1,3 0,5 0,8 2,7 3,0 6,3 5 3 19 11 ENE 1002,2 4,3 0 2,5
20.01.2018 15:00:00 3,0 1,4 2,6 3,0 2,9 6,3 9 5 21 11 S 1003,0 9 0 1,5
20.01.2018 14:00:00 3,7 2,4 3,3 3,0 2,8 6,3 4 2 9 5 SSE 1004,4 4,2 0 1,2
20.01.2018 13:00:00 3,6 2,4 3,3 2,7 2,7 6,3 4 2 12 7 ENE 1006,1 5 0 0,5
20.01.2018 12:00:00 3,5 1,8 3,1 2,3 2,7 6,3 2 1 6 3 N 1007,7 7 0 0,0
20.01.2018 11:00:00 3,3 1,1 2,9 1,9 2,6 6,3 4 2 14 8 SW 1009,1 27 0 0,0
20.01.2018 10:00:00 2,8 0,7 2,2 1,4 2,6 6,3 6 3 14 8 WNW 1009,8 25 0 0,0
20.01.2018 09:00:00 2,5 0,7 1,5 1,0 2,7 6,3 8 5 16 9 W 1010,4 31 0 0,0
20.01.2018 08:00:00 2,0 0,5 0,6 0,9 2,7 6,3 7 4 17 9 W 1010,7 40 0 0,0
20.01.2018 07:00:00 2,5 0,8 1,2 1,0 2,8 6,3 9 5 16 9 SW 1011,0 54 0 0,0
20.01.2018 06:00:00 2,3 0,7 1,0 1,0 2,8 6,3 7 4 15 8 SSW 1011,2 35 0 0,0
20.01.2018 05:00:00 2,3 0,8 1,0 1,0 2,9 6,3 6 3 13 7 SSW 1011,6 34 0 0,0
20.01.2018 04:00:00 2,0 0,7 0,4 1,0 2,9 6,3 6 3 16 9 SW 1012,1 27 0 0,0
20.01.2018 03:00:00 1,6 0,2 0,4 1,0 3,0 6,3 5 3 6 4 W 1012,3 17 0 0,1
20.01.2018 02:00:00 1,5 0,2 0,4 1,1 3,1 6,3 5 3 9 5 W 1012,8 16 0 0,0
20.01.2018 01:00:00 1,3 -0,1 0,4 1,1 3,2 6,3 5 3 16 8 WNW 1013,1 22 0 0,0
20.01.2018 00:00:00 1,5 -0,2 0,0 1,1 3,3 6,3 9 5 15 8 WSW 1013,1 24 0 0,0
19.01.2018 23:00:00 0,5 -1,2 -1,4 1,2 3,4 6,3 8 4 11 6 W 1013,0 20 0 0,0
19.01.2018 22:00:00 1,0 -0,8 -0,2 1,3 3,5 6,3 4 2 13 7 ENE 1012,8 19 0 0,0
19.01.2018 21:00:00 0,1 -1,3 -1,4 1,4 3,7 6,3 9 5 11 6 NW 1012,6 28 0 0,0
19.01.2018 20:00:00 0,5 -1,1 -1,3 1,6 3,8 6,3 5 3 11 6 N 1012,0 20 0 0,0
19.01.2018 19:00:00 1,2 -1,0 -0,8 1,8 3,9 6,4 3 2 8 5 WNW 1011,7 34 0 0,0
19.01.2018 18:00:00 2,4 -0,6 -0,9 2,8 4,0 6,4 9 5 16 8 WNW 1011,4 68 0 0,0
19.01.2018 17:00:00 3,4 0,7 1,5 3,7 3,9 6,4 8 5 35 19 SW 1011,3 70 0 0,1
19.01.2018 16:00:00 5,7 -1,5 4,6 4,1 3,9 6,4 8 4 21 11 WSW 1011,2 70 0 0,0
19.01.2018 15:00:00 5,6 -1,6 4,9 4,2 3,8 6,4 13 7 24 13 WNW 1011,3 21 2 0,0
19.01.2018 14:00:00 5,8 -2,2 5,3 4,1 3,6 6,4 16 9 28 15 SW 1011,5 70 0 0,0
19.01.2018 13:00:00 5,6 -1,0 4,6 3,8 3,6 6,4 11 6 35 19 W 1011,9 70 1 0,0
19.01.2018 12:00:00 5,3 -0,8 4,2 3,3 3,5 6,4 21 11 34 18 W 1011,9 70 2 0,0
19.01.2018 11:00:00 4,9 -0,7 3,4 2,7 3,5 6,4 16 9 36 19 WSW 1011,3 70 36 0,0
19.01.2018 10:00:00 4,8 -0,3 3,3 2,1 3,5 6,4 21 12 34 18 W 1010,2 31 43 0,0
19.01.2018 09:00:00 4,0 0,3 2,1 1,9 3,6 6,4 19 10 29 15 W 1009,5 50 0 0,0
19.01.2018 08:00:00 2,5 1,0 1,1 2,0 3,7 6,4 9 5 29 16 W 1008,7 47 0 0,8
19.01.2018 07:00:00 2,9 0,6 1,7 1,9 3,8 6,4 24 13 43 23 WNW 1008,1 9 0 0,7
19.01.2018 06:00:00 3,8 -0,2 1,4 2,0 3,9 6,4 14 7 34 18 W 1007,0 70 0 0,0
19.01.2018 05:00:00 4,2 -0,1 1,7 2,4 3,9 6,4 21 12 38 20 WNW 1006,3 70 0 0,0
19.01.2018 04:00:00 4,6 0,4 2,0 2,9 4,0 6,4 22 12 46 25 W 1005,4 70 0 0,0
19.01.2018 03:00:00 5,1 1,3 3,2 3,1 4,0 6,4 26 14 39 21 W 1004,9 64 0 0,0
19.01.2018 02:00:00 3,4 2,0 2,3 3,2 4,0 6,4 8 5 23 13 W 1004,1 70 0 0,0
19.01.2018 01:00:00 4,3 2,6 3,3 3,1 4,1 6,4 11 6 17 9 SSW 1004,3 65 0 0,2
19.01.2018 00:00:00 4,8 2,7 3,5 2,9 4,1 6,4 9 5 21 12 WSW 1004,2 31 0 0,2
18.01.2018 23:00:00 4,2 1,6 2,7 2,6 4,2 6,4 7 4 14 8 SW 1004,0 21 0 0,2
18.01.2018 22:00:00 3,8 0,5 2,2 2,3 4,4 6,4 2 1 6 4 SW 1004,6 40 0 0,0
18.01.2018 21:00:00 3,6 -0,3 1,1 2,3 4,6 6,4 5 3 9 5 W 1004,5 60 0 0,0
18.01.2018 20:00:00 4,5 -0,8 -0,4 2,9 4,8 6,5 5 3 11 6 SW 1004,0 70 0 0,0
18.01.2018 19:00:00 5,5 -1,0 1,4 3,7 4,9 6,5 8 4 15 8 WNW 1003,5 70 0 0,0
18.01.2018 18:00:00 6,7 -1,1 3,5 4,6 4,9 6,5 11 6 37 20 WNW 1002,9 70 0 0,0
18.01.2018 17:00:00 7,6 -1,0 5,4 5,6 4,7 6,5 22 12 59 32 WNW 1002,2 70 17 0,0
18.01.2018 16:00:00 8,8 -0,1 7,7 6,9 4,5 6,5 35 19 59 32 WNW 1001,3 32 59 0,0
18.01.2018 15:00:00 10,6 -0,5 10,5 6,8 4,3 6,5 32 17 74 40 W 1000,0 26 52 0,0
18.01.2018 14:00:00 11,9 0,5 12,1 6,6 4,0 6,5 41 22 85 46 W 998,9 20 38 0,0
18.01.2018 13:00:00 11,8 2,2 11,7 6,0 3,7 6,5 53 29 87 47 W 997,5 23 32 0,0
18.01.2018 12:00:00 11,4 4,9 11,5 5,5 3,5 6,5 47 26 74 40 W 996,4 35 25 0,0
18.01.2018 11:00:00 10,0 4,9 9,4 3,9 3,4 6,5 19 10 41 22 WSW 996,6 70 19 0,1
18.01.2018 10:00:00 6,1 3,2 4,4 2,9 3,4 6,5 18 10 32 18 WSW 998,5 7 0 0,0

tt = Température de l'air
td = dewpoint
tt 5cm = Température de l'air 5cm
tt -5cm = Température de l'air -5cm
tt -20cm = Température de l'air -20cm
tt -100cm = Température de l'air -100cm
ff = Vitesse du vent
fx = gusts
dd = Direction du vent
ppp = reduced air pressure
vv = visibility
sd = Ensoleillement
rr = Quantités de précipitations

stations d'obs. à proximité